Location: Haieshausen
(51.8387°N, 9.9720°E)
Time: 03:12:21
(UTC+00:00)

CZ-4C R/B - Pass Details

Date: 14 July 2020
Orbit: 409 x 491 km, 97.7° (Epoch: 10 August)

Event Time Altitude Azimuth Distance (km) Brightness Sun altitude
Rises 02:23:50 0° 157° (SSE) 2,375 6.3 -6.9°
Reaches altitude 10° 02:25:51 10° 153° (SSE) 1,504 5.3 -6.7°
Maximum altitude 02:29:01 61° 73° (ENE) 480 3.4 -6.4°
Drops below altitude 10° 02:32:10 10° 352° (N) 1,496 6.2 -6.1°
Sets 02:34:10 0° 349° (N) 2,360 7.1 -5.8°
